2023/01/28 00:00:00,87.9,-2.3
2023/01/28 00:10:00,88.6,-1.9
2023/01/28 00:20:00,89.2,-2.1
2023/01/28 00:30:00,89.3,-2.1
2023/01/28 00:40:00,89.7,-2.1
2023/01/28 00:50:00,90.4,-2.4
2023/01/28 01:00:00,91.5,-2.1
2023/01/28 01:10:00,92.3,-2.5
2023/01/28 01:20:00,92.7,-2.2
2023/01/28 01:30:00,93.3,-2.0
2023/01/28 01:40:00,93.7,-2.2
2023/01/28 01:50:00,94.1,-2.3
2023/01/28 02:00:00,95.2,-2.3
2023/01/28 02:10:00,97.1,-2.3
2023/01/28 02:20:00,98.1,-2.3
2023/01/28 02:30:00,98.4,-2.0
2023/01/28 02:40:00,97.4,-2.3
2023/01/28 02:50:00,97.4,-2.4
2023/01/28 03:00:00,97.8,-2.5
2023/01/28 03:10:00,98.9,-2.7
2023/01/28 03:20:00,100.6,-2.6
2023/01/28 03:30:00,101.4,-2.5
2023/01/28 03:40:00,101.9,-2.8
2023/01/28 03:50:00,103.0,-2.7
2023/01/28 04:00:00,104.0,-2.4
2023/01/28 04:10:00,105.1,-2.8
2023/01/28 04:20:00,106.2,-2.6
2023/01/28 04:30:00,107.1,-2.7
2023/01/28 04:40:00,107.6,-2.8
2023/01/28 04:50:00,107.4,-2.9
2023/01/28 05:00:00,107.3,-2.8
2023/01/28 05:10:00,107.5,-3.0
2023/01/28 05:20:00,108.4,-3.1
2023/01/28 05:30:00,109.0,-2.9
2023/01/28 05:40:00,109.6,-2.9
2023/01/28 05:50:00,109.7,-3.0
2023/01/28 06:00:00,109.5,-2.9
2023/01/28 06:10:00,109.7,-3.2
2023/01/28 06:20:00,110.1,-2.9
2023/01/28 06:30:00,111.1,-3.0
2023/01/28 06:40:00,111.7,-2.9
2023/01/28 06:50:00,112.3,-2.9
2023/01/28 07:00:00,112.9,-3.2
2023/01/28 07:10:00,113.8,-2.9
2023/01/28 07:20:00,114.6,-2.8
2023/01/28 07:30:00,115.5,-3.0
2023/01/28 07:40:00,116.7,-2.8
2023/01/28 07:50:00,118.2,-2.9
2023/01/28 08:00:00,119.3,-2.8
2023/01/28 08:10:00,120.3,-2.7
2023/01/28 08:20:00,121.1,-1.9
2023/01/28 08:30:00,121.1,-1.4
2023/01/28 08:40:00,121.1,-2.4
2023/01/28 08:50:00,121.8,-2.4
2023/01/28 09:00:00,122.6,-2.2
2023/01/28 09:10:00,123.3,-2.0
2023/01/28 09:20:00,123.4,-1.2
2023/01/28 09:30:00,123.2,-1.6
2023/01/28 09:40:00,123.5,-1.2
2023/01/28 09:50:00,123.5,-1.5
2023/01/28 10:00:00,124.1,-1.8
2023/01/28 10:10:00,124.7,-1.7
2023/01/28 10:20:00,125.3,-0.4
2023/01/28 10:30:00,124.0, 1.1
2023/01/28 10:40:00,121.6,-0.2
2023/01/28 10:50:00,121.3,-0.9
2023/01/28 11:00:00,121.6,-1.2
2023/01/28 11:10:00,122.0,-0.5
2023/01/28 11:20:00,122.3,-0.9
2023/01/28 11:30:00,122.6,-1.1
2023/01/28 11:40:00,122.7,-1.1
2023/01/28 11:50:00,122.8, 0.3
2023/01/28 12:00:00,122.7,-0.4
2023/01/28 12:10:00,122.9, 1.6
2023/01/28 12:20:00,122.8, 1.3
2023/01/28 12:30:00,122.4, 0.6
2023/01/28 12:40:00,122.3, 1.0
2023/01/28 12:50:00,122.1, 0.7
2023/01/28 13:00:00,121.9,-0.1
2023/01/28 13:10:00,121.8,-1.2
2023/01/28 13:20:00,122.2,-1.0
2023/01/28 13:30:00,122.9,-0.9
2023/01/28 13:40:00,123.4,-0.7
2023/01/28 13:50:00,123.5,-1.3
2023/01/28 14:00:00,123.7,-1.4
2023/01/28 14:10:00,124.2,-1.1
2023/01/28 14:20:00,124.7,-1.4
2023/01/28 14:30:00,125.1,-1.2
2023/01/28 14:40:00,125.0,-1.8
2023/01/28 14:50:00,125.1,-1.5
2023/01/28 15:00:00,125.6,-1.2
2023/01/28 15:10:00,125.7,-1.1
2023/01/28 15:20:00,125.4,-1.4
2023/01/28 15:30:00,125.2,-1.1
2023/01/28 15:40:00,125.0,-1.1
2023/01/28 15:50:00,124.7,-1.2
2023/01/28 16:00:00,124.7, 0.3
2023/01/28 16:10:00,124.7,-0.4
2023/01/28 16:20:00,124.5,-0.8
2023/01/28 16:30:00,124.5,-1.3
2023/01/28 16:40:00,124.2,-1.6
2023/01/28 16:50:00,124.0,-1.9
2023/01/28 17:00:00,124.0,-1.7
2023/01/28 17:10:00,124.0,-2.1
2023/01/28 17:20:00,123.9,-2.2
2023/01/28 17:30:00,123.8,-2.4
2023/01/28 17:40:00,123.6,-2.5
2023/01/28 17:50:00,123.5,-2.6
2023/01/28 18:00:00,123.3,-2.8
2023/01/28 18:10:00,123.1,-2.9
2023/01/28 18:20:00,123.1,-3.1
2023/01/28 18:30:00,123.0,-3.1
2023/01/28 18:40:00,122.9,-3.3
2023/01/28 18:50:00,122.7,-3.5
2023/01/28 19:00:00,123.0,-3.5
2023/01/28 19:10:00,123.0,-3.6
2023/01/28 19:20:00,122.9,-3.8
2023/01/28 19:30:00,122.9,-4.2
2023/01/28 19:40:00,122.8,-3.9
2023/01/28 19:50:00,122.6,-3.8
2023/01/28 20:00:00,122.9,-4.1
2023/01/28 20:10:00,123.0,-3.9
2023/01/28 20:20:00,123.1,-4.1
2023/01/28 20:30:00,123.8,-4.0
2023/01/28 20:40:00,124.0,-4.0
2023/01/28 20:50:00,124.7,-4.1
2023/01/28 21:00:00,125.2,-4.1
2023/01/28 21:10:00,125.6,-3.6
2023/01/28 21:20:00,126.8,-4.2
2023/01/28 21:30:00,127.1,-4.0
2023/01/28 21:40:00,127.1,-3.9
2023/01/28 21:50:00,127.2,-3.9
2023/01/28 22:00:00,127.3,-4.0
2023/01/28 22:10:00,127.3,-3.9
2023/01/28 22:20:00,127.4,-3.5
2023/01/28 22:30:00,127.1,-3.9
2023/01/28 22:40:00,126.9,-3.9
2023/01/28 22:50:00,126.9,-3.9
2023/01/28 23:00:00,127.0,-3.6
2023/01/28 23:10:00,127.7,-3.5
2023/01/28 23:20:00,129.0,-4.4
2023/01/28 23:30:00,129.3,-4.0
2023/01/28 23:40:00,129.5,-3.9
2023/01/28 23:50:00,129.7,-4.0
